• In Hungary
  • List of Countries
  • For 7 days
  • Water Temperature
  • Satellite Maps
  • Weather Map
  • News
  • Weather Widgets
  • user-avatar
    Login

    Hourly Weather RabaNizna

    Today, 27 May, Sunday

    Time Temperature Precipitation Wind Pressure Humidity
    00:00 +13°C° 0 mm 0 mps 719 mmHg 89%
    01:00 +13°C° 0 mm 0 mps 718 mmHg 89%
    02:00 +12°C° 0 mm 0 mps 718 mmHg 90%
    03:00 +13°C° 0 mm 1 mps 718 mmHg 90%
    04:00 +13°C° 0 mm 1 mps 718 mmHg 91%
    05:00 +14°C° 0 mm 0 mps 718 mmHg 86%
    06:00 +16°C° 0 mm 0 mps 719 mmHg 81%
    07:00 +18°C° 0 mm 0 mps 719 mmHg 76%
    08:00 +22°C° 0.1 mm 1 mps 719 mmHg 70%
    09:00 +23°C° 0.1 mm 1 mps 719 mmHg 64%
    10:00 +25°C° 0.1 mm 1 mps 720 mmHg 58%
    11:00 +25°C° 0.8 mm 1 mps 719 mmHg 60%
    12:00 +25°C° 0.8 mm 2 mps 719 mmHg 62%
    13:00 +25°C° 0.8 mm 2 mps 719 mmHg 64%
    14:00 +25°C° 1.1 mm 2 mps 719 mmHg 66%
    15:00 +24°C° 1.1 mm 2 mps 719 mmHg 68%
    16:00 +24°C° 1.1 mm 2 mps 718 mmHg 71%
    17:00 +23°C° 0.3 mm 2 mps 718 mmHg 76%
    18:00 +21°C° 0.3 mm 1 mps 718 mmHg 81%
    19:00 +20°C° 0.3 mm 1 mps 718 mmHg 86%
    20:00 +19°C° 0.1 mm 1 mps 718 mmHg 88%
    21:00 +18°C° 0.1 mm 1 mps 718 mmHg 90%
    22:00 +16°C° 0.1 mm 1 mps 718 mmHg 93%
    23:00 +16°C° 0 mm 1 mps 718 mmHg 93%

    Tomorrow, 28 May, Monday

    Time Temperature Precipitation Wind Pressure Humidity
    00:00 +15°C° 0 mm 1 mps 718 mmHg 93%
    01:00 +15°C° 0 mm 1 mps 719 mmHg 93%
    02:00 +14°C° 0 mm 1 mps 719 mmHg 93%
    03:00 +14°C° 0 mm 1 mps 719 mmHg 93%
    04:00 +14°C° 0 mm 1 mps 718 mmHg 93%
    05:00 +15°C° 0 mm 1 mps 719 mmHg 89%
    06:00 +17°C° 0 mm 2 mps 719 mmHg 85%
    07:00 +19°C° 0 mm 2 mps 720 mmHg 81%
    08:00 +20°C° 0 mm 2 mps 720 mmHg 72%
    09:00 +22°C° 0 mm 3 mps 720 mmHg 63%
    10:00 +25°C° 0 mm 3 mps 720 mmHg 55%
    11:00 +25°C° 0.1 mm 3 mps 720 mmHg 54%
    12:00 +25°C° 0.1 mm 3 mps 720 mmHg 53%
    13:00 +26°C° 0.1 mm 4 mps 720 mmHg 52%
    14:00 +25°C° 0.1 mm 4 mps 719 mmHg 55%
    15:00 +25°C° 0.1 mm 4 mps 719 mmHg 57%
    16:00 +25°C° 0.1 mm 4 mps 719 mmHg 60%
    17:00 +22°C° 0 mm 4 mps 719 mmHg 67%
    18:00 +20°C° 0 mm 3 mps 719 mmHg 74%
    19:00 +18°C° 0 mm 3 mps 718 mmHg 81%
    20:00 +17°C° 0 mm 2 mps 718 mmHg 85%
    21:00 +16°C° 0 mm 2 mps 718 mmHg 88%
    22:00 +15°C° 0 mm 2 mps 719 mmHg 92%
    23:00 +14°C° 0 mm 2 mps 718 mmHg 92%

    Day after tomorrow, 29 May, Tuesday

    Time Temperature Precipitation Wind Pressure Humidity
    00:00 +14°C° 0 mm 2 mps 718 mmHg 92%
    01:00 +14°C° 0 mm 2 mps 718 mmHg 92%
    02:00 +14°C° 0 mm 2 mps 718 mmHg 93%
    03:00 +13°C° 0 mm 2 mps 718 mmHg 93%
    04:00 +13°C° 0 mm 2 mps 718 mmHg 93%
    05:00 +15°C° 0 mm 2 mps 718 mmHg 87%
    06:00 +17°C° 0 mm 2 mps 718 mmHg 80%
    07:00 +20°C° 0 mm 2 mps 719 mmHg 73%
    08:00 +21°C° 0 mm 2 mps 719 mmHg 67%
    09:00 +24°C° 0 mm 2 mps 719 mmHg 60%
    10:00 +25°C° 0 mm 3 mps 719 mmHg 53%
    11:00 +26°C° 0 mm 3 mps 719 mmHg 51%
    12:00 +26°C° 0 mm 3 mps 718 mmHg 49%
    13:00 +27°C° 0 mm 3 mps 718 mmHg 48%
    14:00 +26°C° 0 mm 3 mps 718 mmHg 51%
    15:00 +26°C° 0 mm 3 mps 717 mmHg 55%
    16:00 +26°C° 0 mm 3 mps 717 mmHg 58%
    17:00 +24°C° 0.1 mm 3 mps 717 mmHg 66%
    18:00 +21°C° 0.1 mm 3 mps 716 mmHg 73%
    19:00 +19°C° 0.1 mm 2 mps 716 mmHg 80%
    20:00 +18°C° 0.1 mm 2 mps 716 mmHg 83%
    21:00 +17°C° 0.1 mm 2 mps 716 mmHg 85%
    22:00 +16°C° 0.1 mm 2 mps 716 mmHg 88%
    23:00 +15°C° 0 mm 1 mps 716 mmHg 89%

    30 May, Wednesday

    Time Temperature Precipitation Wind Pressure Humidity
    00:00 +15°C° 0 mm 1 mps 716 mmHg 89%
    01:00 +14°C° 0 mm 1 mps 715 mmHg 89%
    02:00 +14°C° 0 mm 1 mps 715 mmHg 90%
    03:00 +14°C° 0 mm 1 mps 715 mmHg 90%
    04:00 +14°C° 0 mm 1 mps 715 mmHg 90%
    05:00 +16°C° 0 mm 1 mps 715 mmHg 84%
    06:00 +18°C° 0 mm 1 mps 715 mmHg 77%
    07:00 +20°C° 0 mm 1 mps 715 mmHg 71%
    08:00 +22°C° 0.2 mm 1 mps 716 mmHg 66%
    09:00 +23°C° 0.2 mm 1 mps 716 mmHg 61%
    10:00 +25°C° 0.2 mm 1 mps 716 mmHg 55%
    11:00 +25°C° 0.6 mm 1 mps 715 mmHg 56%
    12:00 +25°C° 0.6 mm 1 mps 715 mmHg 56%
    13:00 +26°C° 0.6 mm 1 mps 715 mmHg 57%
    14:00 +25°C° 1 mm 1 mps 715 mmHg 60%
    15:00 +25°C° 1 mm 1 mps 714 mmHg 64%
    16:00 +24°C° 1 mm 1 mps 714 mmHg 67%
    17:00 +23°C° 0.4 mm 1 mps 714 mmHg 72%
    18:00 +21°C° 0.4 mm 1 mps 713 mmHg 76%
    19:00 +20°C° 0.4 mm 1 mps 713 mmHg 81%
    20:00 +19°C° 0.3 mm 1 mps 713 mmHg 83%
    21:00 +18°C° 0.3 mm 1 mps 713 mmHg 85%
    22:00 +16°C° 0.3 mm 1 mps 713 mmHg 88%
    23:00 +15°C° 0.3 mm 1 mps 713 mmHg 88%

    31 May, Thursday

    Time Temperature Precipitation Wind Pressure Humidity
    00:00 +15°C° 0.3 mm 1 mps 713 mmHg 89%
    01:00 +15°C° 0.3 mm 1 mps 712 mmHg 90%
    02:00 +15°C° 0.5 mm 1 mps 712 mmHg 90%
    03:00 +14°C° 0.5 mm 1 mps 712 mmHg 91%
    04:00 +14°C° 0.5 mm 1 mps 712 mmHg 91%
    05:00 +16°C° 0.1 mm 1 mps 712 mmHg 87%
    06:00 +19°C° 0.1 mm 1 mps 712 mmHg 82%
    07:00 +18°C° 0.1 mm 0 mps 713 mmHg 77%
    08:00 +22°C° 0.6 mm 1 mps 713 mmHg 73%
    09:00 +23°C° 0.6 mm 1 mps 713 mmHg 68%
    10:00 +24°C° 0.6 mm 1 mps 713 mmHg 64%
    11:00 +25°C° 0.8 mm 1 mps 713 mmHg 63%
    12:00 +25°C° 0.8 mm 2 mps 713 mmHg 62%
    13:00 +25°C° 0.8 mm 2 mps 713 mmHg 61%
    14:00 +25°C° 0.5 mm 2 mps 713 mmHg 63%
    15:00 +25°C° 0.5 mm 2 mps 712 mmHg 64%
    16:00 +25°C° 0.5 mm 2 mps 712 mmHg 66%
    17:00 +23°C° 0.1 mm 2 mps 712 mmHg 72%
    18:00 +21°C° 0.1 mm 2 mps 712 mmHg 78%
    19:00 +19°C° 0.1 mm 2 mps 712 mmHg 83%
    20:00 +18°C° 0 mm 2 mps 712 mmHg 86%
    21:00 +18°C° 0 mm 1 mps 712 mmHg 89%
    22:00 +16°C° 0 mm 1 mps 713 mmHg 93%
    23:00 +15°C° 0 mm 1 mps 713 mmHg 94%

    1 June, Friday

    Time Temperature Precipitation Wind Pressure Humidity
    00:00 +15°C° 0 mm 1 mps 713 mmHg 95%
    01:00 +15°C° 0 mm 1 mps 713 mmHg 96%
    02:00 +15°C° 0 mm 2 mps 713 mmHg 96%
    03:00 +15°C° 0 mm 2 mps 713 mmHg 96%
    04:00 +15°C° 0 mm 2 mps 714 mmHg 96%
    05:00 +15°C° 0 mm 2 mps 714 mmHg 94%
    06:00 +16°C° 0 mm 2 mps 715 mmHg 92%
    07:00 +16°C° 0 mm 3 mps 715 mmHg 89%
    08:00 +17°C° 0 mm 3 mps 715 mmHg 83%
    09:00 +18°C° 0 mm 3 mps 716 mmHg 77%
    10:00 +19°C° 0 mm 3 mps 716 mmHg 71%
    11:00 +20°C° 0 mm 4 mps 716 mmHg 65%
    12:00 +20°C° 0 mm 4 mps 716 mmHg 59%
    13:00 +21°C° 0 mm 4 mps 716 mmHg 53%
    14:00 +21°C° 0 mm 4 mps 716 mmHg 54%
    15:00 +21°C° 0 mm 4 mps 716 mmHg 54%
    16:00 +20°C° 0 mm 4 mps 716 mmHg 54%
    17:00 +19°C° 0 mm 4 mps 716 mmHg 61%
    18:00 +17°C° 0 mm 3 mps 716 mmHg 68%
    19:00 +14°C° 0 mm 3 mps 716 mmHg 74%
    20:00 +14°C° 0 mm 2 mps 716 mmHg 78%
    21:00 +13°C° 0 mm 2 mps 717 mmHg 82%
    22:00 +10°C° 0 mm 2 mps 717 mmHg 86%
    23:00 +9°C° 0 mm 2 mps 717 mmHg 87%
    Show more